Location: Isola Pescaroli
(45.0500°N, 10.1667°E)
Time: 20:14:34
(UTC+00:00)

Meteor 2-4 Rocket - Pass Details

Date: 03 March 2021
Orbit: 799 x 908 km, 81.2° (Epoch: 17 April)

Event Time Altitude Azimuth Distance (km) Brightness Sun altitude
Rises 18:46:16 0° 347° (NNW) 3,491 7.2 -17.8°
Reaches altitude 10° 18:48:43 10° 346° (NNW) 2,561 6.5 -18.3°
Maximum altitude 18:54:33 74° 263° (W) 937 4.0 -19.3°
Drops below altitude 10° 19:00:26 10° 179° (S) 2,583 6.1 -20.3°
Sets 19:02:54 0° 177° (S) 3,522 6.8 -20.7°
